,,,PA_Meas_PMT16A,,PR_Meas_QMR101_102,,RH_Meas_QMH101,,SR_Meas_QMS101,,TA_Meas_QMH101,,GenWind,,GenWind,
date,time,status,PA,status,PR,status,RH,status,SR,status,TA,status,DirAvg,status,SpdAvg,
2010-08-10, 00:00:05,VALID,1005.52,VALID,0,VALID,88.1365,VALID,0,VALID,25.1034,VALID,348,VALID,0.78125,
2010-08-10, 00:01:05,VALID,1005.49,VALID,0,VALID,88.0068,VALID,0,VALID,25.082,VALID,352,VALID,0.817969,
2010-08-10, 00:02:05,VALID,1005.49,VALID,0,VALID,87.961,VALID,0,VALID,25.1423,VALID,358,VALID,0.891797,
2010-08-10, 00:03:05,VALID,1005.47,VALID,0,VALID,87.7321,VALID,0,VALID,25.1618,VALID,358,VALID,0.685156,
2010-08-10, 00:04:05,VALID,1005.47,VALID,0,VALID,87.5261,VALID,0,VALID,25.2007,VALID,360,VALID,1.15195,
2010-08-10, 00:05:05,VALID,1005.44,VALID,0,VALID,87.4422,VALID,0,VALID,25.2007,VALID,353,VALID,0.737109,
2010-08-10, 00:06:05,VALID,1005.44,VALID,0,VALID,87.4346,VALID,0,VALID,25.2007,VALID,355,VALID,0.678516,
2010-08-10, 00:07:05,VALID,1005.42,VALID,0,VALID,87.549,VALID,0,VALID,25.1618,VALID,351,VALID,1.27969,
2010-08-10, 00:08:05,VALID,1005.43,VALID,0,VALID,87.5567,VALID,0,VALID,25.1813,VALID,353,VALID,1.39219,
2010-08-10, 00:09:05,VALID,1005.44,VALID,0,VALID,87.3888,VALID,0,VALID,25.2007,VALID,347,VALID,0.928516,
2010-08-10, 00:10:05,VALID,1005.4,VALID,0,VALID,87.3125,VALID,0,VALID,25.2202,VALID,350,VALID,0.945313,
2010-08-10, 00:11:05,VALID,1005.39,VALID,0,VALID,87.2286,VALID,0,VALID,25.2397,VALID,359,VALID,0.929297,
2010-08-10, 00:12:05,VALID,1005.4,VALID,0,VALID,87.3354,VALID,0,VALID,25.2202,VALID,357,VALID,0.561328,
2010-08-10, 00:13:05,VALID,1005.41,VALID,0,VALID,87.5109,VALID,0,VALID,25.1599,VALID,328,VALID,0.676172,
2010-08-10, 00:14:05,VALID,1005.41,VALID,0,VALID,87.6863,VALID,0,VALID,25.1618,VALID,324,VALID,0.332031,
2010-08-10, 00:15:05,VALID,1005.39,VALID,0,VALID,87.8008,VALID,0,VALID,25.1637,VALID,358,VALID,0.871094,
2010-08-10, 00:16:05,VALID,1005.4,VALID,0,VALID,87.9305,VALID,0,VALID,25.1229,VALID,340,VALID,0.701172,
2010-08-10, 00:17:05,VALID,1005.38,VALID,0,VALID,88.0144,VALID,0,VALID,25.1637,VALID,360,VALID,0.679688,
2010-08-10, 00:18:05,VALID,1005.4,VALID,0,VALID,87.9457,VALID,0,VALID,25.1637,VALID,358,VALID,1.2375,
2010-08-10, 00:19:05,VALID,1005.42,VALID,0,VALID,87.7169,VALID,0,VALID,25.1813,VALID,343,VALID,1.03828,
2010-08-10, 00:20:05,VALID,1005.4,VALID,0,VALID,87.549,VALID,0,VALID,25.2202,VALID,343,VALID,0.912109,
2010-08-10, 00:21:05,VALID,1005.38,VALID,0,VALID,87.5414,VALID,0,VALID,25.2397,VALID,348,VALID,0.766406,
2010-08-10, 00:22:05,VALID,1005.38,VALID,0,VALID,87.5185,VALID,0,VALID,25.2397,VALID,356,VALID,0.757031,
2010-08-10, 00:23:05,VALID,1005.39,VALID,0,VALID,87.5033,VALID,0,VALID,25.2786,VALID,345,VALID,0.634766,
2010-08-10, 00:24:05,VALID,1005.4,VALID,0,VALID,87.488,VALID,0,VALID,25.2806,VALID,359,VALID,0.582812,
2010-08-10, 00:25:05,VALID,1005.42,VALID,0,VALID,87.4651,VALID,0,VALID,25.2786,VALID,337,VALID,0.876953,
2010-08-10, 00:26:05,VALID,1005.42,VALID,0,VALID,87.5567,VALID,0,VALID,25.2786,VALID,321,VALID,0.435547,
2010-08-10, 00:27:05,VALID,1005.45,VALID,0,VALID,87.5719,VALID,0,VALID,25.2592,VALID,329,VALID,0.466406,
2010-08-10, 00:28:05,VALID,1005.42,VALID,0,VALID,87.5948,VALID,0,VALID,25.2592,VALID,349,VALID,0.527344,
2010-08-10, 00:29:05,VALID,1005.45,VALID,0,VALID,87.6253,VALID,0,VALID,25.2786,VALID,348,VALID,0.663281,
2010-08-10, 00:30:05,VALID,1005.41,VALID,0,VALID,87.6711,VALID,0,VALID,25.2786,VALID,348,VALID,0.350391,
2010-08-10, 00:31:05,VALID,1005.42,VALID,0,VALID,87.8237,VALID,0,VALID,25.2786,VALID,348,VALID,0.400781,
2010-08-10, 00:32:05,VALID,1005.39,VALID,0,VALID,87.7703,VALID,0,VALID,25.2592,VALID,348,VALID,0.330469,
2010-08-10, 00:33:05,VALID,1005.37,VALID,0,VALID,87.7703,VALID,0,VALID,25.2378,VALID,348,VALID,0.229297,
2010-08-10, 00:34:05,VALID,1005.36,VALID,0,VALID,87.8847,VALID,0.100563,VALID,25.2806,VALID,348,VALID,0.489062,
2010-08-10, 00:35:05,VALID,1005.34,VALID,0,VALID,88.1059,VALID,0,VALID,25.2202,VALID,348,VALID,0.455078,
2010-08-10, 00:36:05,VALID,1005.33,VALID,0,VALID,88.3806,VALID,0,VALID,25.2007,VALID,29,VALID,0.440234,
2010-08-10, 00:37:05,VALID,1005.33,VALID,0,VALID,88.495,VALID,0,VALID,25.1637,VALID,354,VALID,0.496875,
2010-08-10, 00:38:05,VALID,1005.34,VALID,0,VALID,88.6552,VALID,0,VALID,25.1229,VALID,344,VALID,0.513281,
2010-08-10, 00:39:05,VALID,1005.31,VALID,0,VALID,88.8612,VALID,0,VALID,25.1034,VALID,345,VALID,0.325391,
2010-08-10, 00:40:05,VALID,1005.31,VALID,0,VALID,89.3113,VALID,0,VALID,25.0839,VALID,345,VALID,0.519141,
2010-08-10, 00:41:05,VALID,1005.31,VALID,0,VALID,89.6393,VALID,0,VALID,25.0644,VALID,344,VALID,0.594531,
2010-08-10, 00:42:05,VALID,1005.32,VALID,0,VALID,89.7538,VALID,0,VALID,25.045,VALID,343,VALID,0.9,
2010-08-10, 00:43:05,VALID,1005.31,VALID,0,VALID,89.9369,VALID,0,VALID,25.045,VALID,340,VALID,0.408594,
2010-08-10, 00:44:05,VALID,1005.31,VALID,0,VALID,90.0208,VALID,0,VALID,25.0644,VALID,351,VALID,0.354297,
2010-08-10, 00:45:05,VALID,1005.26,VALID,0,VALID,89.9369,VALID,0,VALID,25.0858,VALID,302,VALID,0.200781,
2010-08-10, 00:46:05,VALID,1005.25,VALID,0,VALID,89.7004,VALID,0,VALID,25.0839,VALID,342,VALID,0.665234,
2010-08-10, 00:47:05,VALID,1005.23,VALID,0,VALID,89.3418,VALID,0,VALID,25.0839,VALID,354,VALID,1.08516,
2010-08-10, 00:48:05,VALID,1005.18,VALID,0,VALID,89.0214,VALID,0,VALID,25.1229,VALID,341,VALID,0.389062,
2010-08-10, 00:49:05,VALID,1005.18,VALID,0,VALID,88.8459,VALID,0,VALID,25.1229,VALID,6,VALID,0.358203,
2010-08-10, 00:50:05,VALID,1005.2,VALID,0,VALID,88.6094,VALID,0,VALID,25.1423,VALID,347,VALID,0.373437,
2010-08-10, 00:51:05,VALID,1005.19,VALID,0,VALID,88.5255,VALID,0,VALID,25.1637,VALID,347,VALID,0.230078,
2010-08-10, 00:52:05,VALID,1005.19,VALID,0,VALID,88.4645,VALID,0,VALID,25.1423,VALID,347,VALID,0.467187,
2010-08-10, 00:53:05,VALID,1005.19,VALID,0,VALID,88.5179,VALID,0,VALID,25.1423,VALID,357,VALID,0.347656,
2010-08-10, 00:54:05,VALID,1005.19,VALID,0,VALID,88.5484,VALID,0,VALID,25.121,VALID,357,VALID,0.128516,
2010-08-10, 00:55:05,VALID,1005.17,VALID,0,VALID,88.6247,VALID,0,VALID,25.1442,VALID,353,VALID,0.388672,
2010-08-10, 00:56:05,VALID,1005.19,VALID,0,VALID,88.64,VALID,0,VALID,25.1034,VALID,351,VALID,0.194531,
2010-08-10, 00:57:05,VALID,1005.17,VALID,0,VALID,88.6476,VALID,0,VALID,25.1034,VALID,352,VALID,0.427344,
2010-08-10, 00:58:05,VALID,1005.15,VALID,0,VALID,88.6476,VALID,0,VALID,25.1034,VALID,354,VALID,1.03086,
2010-08-10, 00:59:05,VALID,1005.12,VALID,0,VALID,88.6857,VALID,0,VALID,25.1053,VALID,342,VALID,0.803906,
2010-08-10, 01:00:05,VALID,1005.13,VALID,0,VALID,88.64,VALID,0,VALID,25.0839,VALID,353,VALID,0.636328,
2010-08-10, 01:01:05,VALID,1005.11,VALID,0,VALID,88.7086,VALID,0,VALID,25.082,VALID,343,VALID,0.630078,
2010-08-10, 01:02:05,VALID,1005.14,VALID,0,VALID,88.7239,VALID,0,VALID,25.1034,VALID,314,VALID,0.220703,
2010-08-10, 01:03:05,VALID,1005.11,VALID,0,VALID,88.7849,VALID,0,VALID,25.1034,VALID,335,VALID,0.55,
2010-08-10, 01:04:05,VALID,1005.1,VALID,0,VALID,88.7239,VALID,0,VALID,25.1034,VALID,354,VALID,0.95,
2010-08-10, 01:05:05,VALID,1005.08,VALID,0,VALID,88.7086,VALID,0,VALID,25.1229,VALID,356,VALID,0.576563,
2010-08-10, 01:06:05,VALID,1005.08,VALID,0,VALID,88.6552,VALID,0,VALID,25.1442,VALID,298,VALID,0.198828,
2010-08-10, 01:07:05,VALID,1005.05,VALID,0,VALID,88.5713,VALID,0,VALID,25.1423,VALID,341,VALID,0.135937,
2010-08-10, 01:08:05,VALID,1005.01,VALID,0,VALID,88.6323,VALID,0,VALID,25.1423,VALID,343,VALID,0.170703,
2010-08-10, 01:09:05,VALID,1005.01,VALID,0,VALID,88.4645,VALID,0,VALID,25.1618,VALID,322,VALID,0.458984,
2010-08-10, 01:10:05,VALID,1004.97,VALID,0,VALID,88.3195,VALID,0,VALID,25.1813,VALID,344,VALID,0.209375,
2010-08-10, 01:11:05,VALID,1004.94,VALID,0,VALID,88.2051,VALID,0,VALID,25.2007,VALID,340,VALID,0.300781,
2010-08-10, 01:12:04,VALID,1004.91,VALID,0,VALID,88.1593,VALID,0.100563,VALID,25.2027,VALID,340,VALID,0.31875,
2010-08-10, 01:13:04,VALID,1004.89,VALID,0,VALID,88.1517,VALID,0,VALID,25.2007,VALID,358,VALID,0.326953,
2010-08-10, 01:14:04,VALID,1004.86,VALID,0,VALID,88.1288,VALID,0,VALID,25.1813,VALID,346,VALID,0.85625,
2010-08-10, 01:15:04,VALID,1004.87,VALID,0,VALID,88.0068,VALID,0,VALID,25.1813,VALID,355,VALID,1.10039,
2010-08-10, 01:16:04,VALID,1004.85,VALID,0,VALID,87.8694,VALID,0,VALID,25.2007,VALID,353,VALID,1.06797,
2010-08-10, 01:17:04,VALID,1004.85,VALID,0,VALID,87.8771,VALID,0,VALID,25.2221,VALID,341,VALID,0.733984,
2010-08-10, 01:18:04,VALID,1004.82,VALID,0,VALID,87.8313,VALID,0,VALID,25.2007,VALID,344,VALID,1.06953,
2010-08-10, 01:19:04,VALID,1004.81,VALID,0,VALID,87.9076,VALID,0,VALID,25.2221,VALID,345,VALID,0.720312,
2010-08-10, 01:20:04,VALID,1004.78,VALID,0,VALID,87.9076,VALID,0,VALID,25.1794,VALID,3,VALID,0.890625,
2010-08-10, 01:21:04,VALID,1004.79,VALID,0,VALID,87.9534,VALID,0.100563,VALID,25.2027,VALID,344,VALID,1.04258,
2010-08-10, 01:22:04,VALID,1004.78,VALID,0,VALID,87.9076,VALID,0,VALID,25.2007,VALID,347,VALID,0.287109,
2010-08-10, 01:23:04,VALID,1004.76,VALID,0,VALID,87.961,VALID,0,VALID,25.2007,VALID,332,VALID,0.796875,
2010-08-10, 01:24:04,VALID,1004.74,VALID,0,VALID,87.8847,VALID,0,VALID,25.2416,VALID,345,VALID,0.941016,
2010-08-10, 01:25:04,VALID,1004.73,VALID,0,VALID,87.7703,VALID,0.100563,VALID,25.2202,VALID,329,VALID,1.17227,
2010-08-10, 01:26:04,VALID,1004.74,VALID,0,VALID,87.7016,VALID,0,VALID,25.2202,VALID,342,VALID,0.784766,
2010-08-10, 01:27:04,VALID,1004.72,VALID,0,VALID,87.6253,VALID,0,VALID,25.2611,VALID,353,VALID,1.33203,
2010-08-10, 01:28:04,VALID,1004.69,VALID,0,VALID,87.5795,VALID,0,VALID,25.2592,VALID,344,VALID,0.893359,
2010-08-10, 01:29:04,VALID,1004.7,VALID,0,VALID,87.6177,VALID,0,VALID,25.3,VALID,322,VALID,0.897656,
2010-08-10, 01:30:04,VALID,1004.67,VALID,0,VALID,87.6101,VALID,0,VALID,25.2981,VALID,341,VALID,0.496094,
2010-08-10, 01:31:04,VALID,1004.65,VALID,0,VALID,87.6406,VALID,0.100563,VALID,25.2767,VALID,351,VALID,0.789844,
2010-08-10, 01:32:04,VALID,1004.65,VALID,0,VALID,87.6635,VALID,0,VALID,25.2981,VALID,349,VALID,1,
2010-08-10, 01:33:04,VALID,1004.63,VALID,0,VALID,87.6863,VALID,0,VALID,25.2981,VALID,357,VALID,1.01914,
2010-08-10, 01:34:04,VALID,1004.61,VALID,0,VALID,87.6787,VALID,0,VALID,25.2981,VALID,348,VALID,0.767187,
2010-08-10, 01:35:04,VALID,1004.63,VALID,0,VALID,87.7626,VALID,0,VALID,25.2981,VALID,333,VALID,0.735937,
2010-08-10, 01:36:04,VALID,1004.58,VALID,0,VALID,87.8694,VALID,0.100563,VALID,25.3176,VALID,344,VALID,0.515625,
2010-08-10, 01:37:04,VALID,1004.57,VALID,0,VALID,87.9381,VALID,0.100563,VALID,25.3176,VALID,5,VALID,0.712109,
2010-08-10, 01:38:04,VALID,1004.55,VALID,0,VALID,87.9686,VALID,0.100563,VALID,25.337,VALID,340,VALID,0.819531,
2010-08-10, 01:39:04,VALID,1004.54,VALID,0,VALID,87.9,VALID,0.100563,VALID,25.376,VALID,350,VALID,1.18359,
2010-08-10, 01:40:04,VALID,1004.55,VALID,0,VALID,87.7855,VALID,0,VALID,25.3779,VALID,350,VALID,0.655469,
2010-08-10, 01:41:04,VALID,1004.58,VALID,0,VALID,87.6863,VALID,0,VALID,25.3993,VALID,346,VALID,1.25234,
2010-08-10, 01:42:04,VALID,1004.55,VALID,0,VALID,87.6711,VALID,0,VALID,25.3779,VALID,354,VALID,1.29219,
2010-08-10, 01:43:04,VALID,1004.55,VALID,0,VALID,87.6711,VALID,0,VALID,25.3993,VALID,358,VALID,0.906641,
2010-08-10, 01:44:04,VALID,1004.58,VALID,0,VALID,87.7779,VALID,0,VALID,25.3974,VALID,342,VALID,1.08555,
2010-08-10, 01:45:04,VALID,1004.59,VALID,0,VALID,87.9534,VALID,0,VALID,25.3993,VALID,354,VALID,0.649609,
2010-08-10, 01:46:04,VALID,1004.63,VALID,0,VALID,88.0983,VALID,0,VALID,25.3798,VALID,338,VALID,0.557422,
2010-08-10, 01:47:04,VALID,1004.61,VALID,0,VALID,88.3806,VALID,0,VALID,25.3584,VALID,350,VALID,1.30195,
2010-08-10, 01:48:04,VALID,1004.64,VALID,0,VALID,88.4187,VALID,0,VALID,25.3993,VALID,7,VALID,0.314844,
2010-08-10, 01:49:04,VALID,1004.67,VALID,0,VALID,88.434,VALID,0,VALID,25.4188,VALID,352,VALID,1.03164,
2010-08-10, 01:50:04,VALID,1004.66,VALID,0,VALID,88.3806,VALID,0,VALID,25.4188,VALID,353,VALID,0.78125,
2010-08-10, 01:51:04,VALID,1004.63,VALID,0,VALID,88.4416,VALID,0,VALID,25.4169,VALID,351,VALID,0.456641,
2010-08-10, 01:52:04,VALID,1004.64,VALID,0,VALID,88.4874,VALID,0,VALID,25.4577,VALID,4,VALID,0.664844,
2010-08-10, 01:53:04,VALID,1004.63,VALID,0,VALID,88.3958,VALID,0,VALID,25.4169,VALID,338,VALID,0.950391,
2010-08-10, 01:54:04,VALID,1004.61,VALID,0,VALID,88.3424,VALID,0,VALID,25.4363,VALID,3,VALID,0.741406,
2010-08-10, 01:55:04,VALID,1004.62,VALID,0,VALID,88.3806,VALID,0,VALID,25.4539,VALID,357,VALID,0.75625,
2010-08-10, 01:56:04,VALID,1004.6,VALID,0,VALID,88.434,VALID,0.100563,VALID,25.413,VALID,341,VALID,0.774219,
2010-08-10, 01:57:04,VALID,1004.61,VALID,0,VALID,88.4264,VALID,0,VALID,25.4344,VALID,345,VALID,0.811328,
2010-08-10, 01:58:04,VALID,1004.61,VALID,0,VALID,88.4645,VALID,0,VALID,25.4149,VALID,351,VALID,0.802734,
2010-08-10, 01:59:04,VALID,1004.63,VALID,0,VALID,88.4111,VALID,0.100563,VALID,25.4344,VALID,356,VALID,0.609766,
2010-08-10, 02:00:04,VALID,1004.63,VALID,0,VALID,88.4721,VALID,0.100563,VALID,25.4344,VALID,6,VALID,0.966016,
2010-08-10, 02:01:04,VALID,1004.61,VALID,0,VALID,88.3806,VALID,0.100563,VALID,25.4149,VALID,339,VALID,1.26953,
2010-08-10, 02:02:04,VALID,1004.62,VALID,0,VALID,88.3348,VALID,0,VALID,25.4558,VALID,350,VALID,0.740625,
2010-08-10, 02:03:04,VALID,1004.58,VALID,0,VALID,88.3195,VALID,0,VALID,25.4149,VALID,348,VALID,0.88125,
2010-08-10, 02:04:04,VALID,1004.57,VALID,0,VALID,88.2738,VALID,0,VALID,25.4149,VALID,347,VALID,1.01328,
2010-08-10, 02:05:04,VALID,1004.57,VALID,0,VALID,88.2738,VALID,0,VALID,25.4149,VALID,353,VALID,1.24922,
2010-08-10, 02:06:04,VALID,1004.55,VALID,0,VALID,88.289,VALID,0,VALID,25.4149,VALID,339,VALID,0.7875,
2010-08-10, 02:07:04,VALID,1004.52,VALID,0,VALID,88.3424,VALID,0,VALID,25.4149,VALID,348,VALID,0.739453,
2010-08-10, 02:08:04,VALID,1004.52,VALID,0,VALID,88.4187,VALID,0.100563,VALID,25.3955,VALID,329,VALID,0.64375,
2010-08-10, 02:09:04,VALID,1004.53,VALID,0,VALID,88.3653,VALID,0.100563,VALID,25.3955,VALID,348,VALID,0.877734,
2010-08-10, 02:10:04,VALID,1004.5,VALID,0,VALID,88.4492,VALID,0.100563,VALID,25.3955,VALID,340,VALID,0.503906,
2010-08-10, 02:11:04,VALID,1004.48,VALID,0,VALID,88.4111,VALID,0,VALID,25.376,VALID,352,VALID,0.751172,
2010-08-10, 02:12:04,VALID,1004.49,VALID,0,VALID,88.4111,VALID,0,VALID,25.3779,VALID,329,VALID,0.609766,
2010-08-10, 02:13:04,VALID,1004.5,VALID,0,VALID,88.3806,VALID,0,VALID,25.3565,VALID,3,VALID,0.785547,
2010-08-10, 02:14:04,VALID,1004.5,VALID,0,VALID,88.3577,VALID,0,VALID,25.376,VALID,358,VALID,1.06328,
2010-08-10, 02:15:04,VALID,1004.49,VALID,0,VALID,88.3195,VALID,0,VALID,25.3974,VALID,357,VALID,1.35312,
2010-08-10, 02:16:04,VALID,1004.49,VALID,0,VALID,88.3348,VALID,0,VALID,25.376,VALID,323,VALID,0.471094,
2010-08-10, 02:17:04,VALID,1004.48,VALID,0,VALID,88.3882,VALID,0,VALID,25.3779,VALID,346,VALID,0.58125,
2010-08-10, 02:18:04,VALID,1004.46,VALID,0,VALID,88.434,VALID,0.100563,VALID,25.3565,VALID,353,VALID,1.2043,
2010-08-10, 02:19:04,VALID,1004.48,VALID,0,VALID,88.5179,VALID,0,VALID,25.337,VALID,354,VALID,0.780859,
2010-08-10, 02:20:04,VALID,1004.48,VALID,0,VALID,88.5103,VALID,0.100563,VALID,25.3157,VALID,343,VALID,0.933594,
2010-08-10, 02:21:04,VALID,1004.5,VALID,0,VALID,88.5103,VALID,0,VALID,25.337,VALID,346,VALID,0.905469,
2010-08-10, 02:22:04,VALID,1004.49,VALID,0,VALID,88.5332,VALID,0,VALID,25.337,VALID,359,VALID,1.59492,
2010-08-10, 02:23:04,VALID,1004.51,VALID,0,VALID,88.5026,VALID,0,VALID,25.3584,VALID,12,VALID,0.462891,
2010-08-10, 02:24:04,VALID,1004.5,VALID,0,VALID,88.6094,VALID,0,VALID,25.337,VALID,7,VALID,1.01797,
2010-08-10, 02:25:04,VALID,1004.51,VALID,0,VALID,88.5942,VALID,0.100563,VALID,25.337,VALID,351,VALID,0.805469,
2010-08-10, 02:26:04,VALID,1004.54,VALID,0,VALID,88.6094,VALID,0.100563,VALID,25.3779,VALID,352,VALID,0.607031,
2010-08-10, 02:27:04,VALID,1004.54,VALID,0,VALID,88.6171,VALID,0,VALID,25.337,VALID,7,VALID,1.375,
2010-08-10, 02:28:04,VALID,1004.56,VALID,0,VALID,88.6171,VALID,0,VALID,25.3779,VALID,355,VALID,0.837109,
2010-08-10, 02:29:04,VALID,1004.57,VALID,0,VALID,88.6094,VALID,0,VALID,25.376,VALID,352,VALID,0.457031,
2010-08-10, 02:30:04,VALID,1004.55,VALID,0,VALID,88.6094,VALID,0,VALID,25.376,VALID,345,VALID,0.527734,
2010-08-10, 02:31:04,VALID,1004.55,VALID,0,VALID,88.6323,VALID,0,VALID,25.3565,VALID,353,VALID,0.460938,
2010-08-10, 02:32:04,VALID,1004.55,VALID,0,VALID,88.5179,VALID,0,VALID,25.3779,VALID,2,VALID,0.98125,
2010-08-10, 02:33:04,VALID,1004.59,VALID,0,VALID,88.6476,VALID,0.100563,VALID,25.3974,VALID,342,VALID,0.230469,
2010-08-10, 02:34:04,VALID,1004.57,VALID,0,VALID,88.5866,VALID,0,VALID,25.3565,VALID,3,VALID,0.567969,
2010-08-10, 02:35:04,VALID,1004.56,VALID,0,VALID,88.556,VALID,0.100563,VALID,25.376,VALID,340,VALID,0.732813,
2010-08-10, 02:36:04,VALID,1004.55,VALID,0,VALID,88.5484,VALID,0,VALID,25.3565,VALID,340,VALID,0.908984,
2010-08-10, 02:37:04,VALID,1004.56,VALID,0,VALID,88.5637,VALID,0,VALID,25.376,VALID,355,VALID,0.865625,
2010-08-10, 02:38:04,VALID,1004.54,VALID,0,VALID,88.434,VALID,0.100563,VALID,25.376,VALID,357,VALID,0.816016,
2010-08-10, 02:39:04,VALID,1004.53,VALID,0,VALID,88.4264,VALID,0,VALID,25.376,VALID,344,VALID,0.854688,
2010-08-10, 02:40:04,VALID,1004.52,VALID,0,VALID,88.4035,VALID,0,VALID,25.376,VALID,354,VALID,0.586719,
2010-08-10, 02:41:04,VALID,1004.5,VALID,0,VALID,88.3195,VALID,0,VALID,25.376,VALID,341,VALID,0.866016,
2010-08-10, 02:42:04,VALID,1004.47,VALID,0,VALID,88.3195,VALID,0,VALID,25.3955,VALID,343,VALID,1.00273,
2010-08-10, 02:43:04,VALID,1004.51,VALID,0,VALID,88.3882,VALID,0.100563,VALID,25.4149,VALID,355,VALID,0.428125,
2010-08-10, 02:44:04,VALID,1004.48,VALID,0,VALID,88.3806,VALID,0.100563,VALID,25.4149,VALID,4,VALID,0.873438,
2010-08-10, 02:45:04,VALID,1004.47,VALID,0,VALID,88.3119,VALID,0.100563,VALID,25.4149,VALID,353,VALID,0.766797,
2010-08-10, 02:46:04,VALID,1004.45,VALID,0,VALID,88.167,VALID,0.100563,VALID,25.4344,VALID,357,VALID,0.791797,
2010-08-10, 02:47:04,VALID,1004.47,VALID,0,VALID,88.1517,VALID,0,VALID,25.4344,VALID,350,VALID,0.903516,
2010-08-10, 02:48:04,VALID,1004.45,VALID,0,VALID,88.1517,VALID,0,VALID,25.4149,VALID,352,VALID,1.02188,
2010-08-10, 02:49:04,VALID,1004.44,VALID,0,VALID,87.9915,VALID,0,VALID,25.4149,VALID,5,VALID,0.716016,
2010-08-10, 02:50:04,VALID,1004.45,VALID,0,VALID,87.9686,VALID,0.100563,VALID,25.4149,VALID,348,VALID,0.662891,
2010-08-10, 02:51:04,VALID,1004.43,VALID,0,VALID,87.7626,VALID,0.100563,VALID,25.4149,VALID,334,VALID,0.533984,
2010-08-10, 02:52:04,VALID,1004.4,VALID,0,VALID,87.6787,VALID,0.100563,VALID,25.3955,VALID,1,VALID,1.28437,
2010-08-10, 02:53:04,VALID,1004.38,VALID,0,VALID,87.5948,VALID,0,VALID,25.3955,VALID,316,VALID,0.811719,
2010-08-10, 02:54:04,VALID,1004.38,VALID,0,VALID,87.5872,VALID,0,VALID,25.4149,VALID,360,VALID,0.761328,
2010-08-10, 02:55:04,VALID,1004.38,VALID,0,VALID,87.6024,VALID,0,VALID,25.4344,VALID,11,VALID,0.340234,
2010-08-10, 02:56:04,VALID,1004.36,VALID,0,VALID,87.5643,VALID,0,VALID,25.4149,VALID,6,VALID,1.14531,
2010-08-10, 02:57:04,VALID,1004.38,VALID,0,VALID,87.5033,VALID,0,VALID,25.4344,VALID,360,VALID,0.579687,
2010-08-10, 02:58:04,VALID,1004.38,VALID,0,VALID,87.5414,VALID,0,VALID,25.4344,VALID,300,VALID,0.224219,
2010-08-10, 02:59:04,VALID,1004.43,VALID,0,VALID,87.5719,VALID,0,VALID,25.4344,VALID,337,VALID,0.481641,
2010-08-10, 03:00:04,VALID,1004.4,VALID,0,VALID,87.4346,VALID,0.100563,VALID,25.4344,VALID,348,VALID,0.829687,
2010-08-10, 03:01:04,VALID,1004.48,VALID,0,VALID,87.3049,VALID,0,VALID,25.4363,VALID,1,VALID,0.873047,
2010-08-10, 03:02:04,VALID,1004.45,VALID,0,VALID,87.4193,VALID,0.100563,VALID,25.3955,VALID,320,VALID,0.359375,
2010-08-10, 03:03:04,VALID,1004.47,VALID,0,VALID,87.4804,VALID,0.100563,VALID,25.3955,VALID,344,VALID,0.750391,
2010-08-10, 03:04:04,VALID,1004.47,VALID,0,VALID,87.4804,VALID,0,VALID,25.3955,VALID,353,VALID,0.757813,
2010-08-10, 03:05:04,VALID,1004.47,VALID,0,VALID,87.7169,VALID,0,VALID,25.3955,VALID,350,VALID,0.414844,
2010-08-10, 03:06:04,VALID,1004.48,VALID,0,VALID,87.7245,VALID,0,VALID,25.3779,VALID,350,VALID,0.407422,
2010-08-10, 03:07:04,VALID,1004.47,VALID,0,VALID,87.7626,VALID,0.100563,VALID,25.3157,VALID,332,VALID,0.55625,
2010-08-10, 03:08:04,VALID,1004.49,VALID,0,VALID,87.8618,VALID,0,VALID,25.337,VALID,349,VALID,0.277734,
2010-08-10, 03:09:04,VALID,1004.46,VALID,0,VALID,87.816,VALID,0.100563,VALID,25.3176,VALID,347,VALID,0.558984,
2010-08-10, 03:10:04,VALID,1004.47,VALID,0,VALID,87.8923,VALID,0.100563,VALID,25.337,VALID,347,VALID,0.615625,
2010-08-10, 03:11:04,VALID,1004.48,VALID,0,VALID,88.0449,VALID,0,VALID,25.3176,VALID,340,VALID,0.377344,
2010-08-10, 03:12:04,VALID,1004.49,VALID,0,VALID,88.0907,VALID,0,VALID,25.2981,VALID,351,VALID,0.640234,
2010-08-10, 03:13:04,VALID,1004.5,VALID,0,VALID,88.0068,VALID,0.100563,VALID,25.2962,VALID,349,VALID,0.5375,
2010-08-10, 03:14:04,VALID,1004.51,VALID,0,VALID,88.1288,VALID,0,VALID,25.2981,VALID,332,VALID,0.338672,
2010-08-10, 03:15:04,VALID,1004.54,VALID,0,VALID,88.1517,VALID,0,VALID,25.3176,VALID,332,VALID,0.340625,
2010-08-10, 03:16:04,VALID,1004.57,VALID,0,VALID,88.1441,VALID,0,VALID,25.3176,VALID,267,VALID,0.364062,
2010-08-10, 03:17:04,VALID,1004.59,VALID,0,VALID,88.0373,VALID,0.100563,VALID,25.339,VALID,337,VALID,0.746484,
2010-08-10, 03:18:04,VALID,1004.58,VALID,0,VALID,88.0373,VALID,0,VALID,25.337,VALID,341,VALID,0.523047,
2010-08-10, 03:19:04,VALID,1004.62,VALID,0,VALID,87.9457,VALID,0.100563,VALID,25.337,VALID,341,VALID,0.424609,
2010-08-10, 03:20:04,VALID,1004.61,VALID,0,VALID,87.8771,VALID,0,VALID,25.337,VALID,310,VALID,0.110937,
2010-08-10, 03:21:04,VALID,1004.62,VALID,0,VALID,87.9228,VALID,0,VALID,25.3584,VALID,307,VALID,0.0140625,
2010-08-10, 03:22:04,VALID,1004.63,VALID,0,VALID,87.8847,VALID,0,VALID,25.3779,VALID,306,VALID,0.05625,
2010-08-10, 03:23:04,VALID,1004.6,VALID,0,VALID,87.7092,VALID,0.100563,VALID,25.3565,VALID,355,VALID,0.285547,
2010-08-10, 03:24:04,VALID,1004.6,VALID,0,VALID,87.6863,VALID,0,VALID,25.337,VALID,355,VALID,0.415625,
2010-08-10, 03:25:04,VALID,1004.56,VALID,0,VALID,87.6101,VALID,0,VALID,25.3565,VALID,355,VALID,0.909375,
2010-08-10, 03:26:04,VALID,1004.58,VALID,0,VALID,87.7092,VALID,0,VALID,25.3779,VALID,351,VALID,0.548828,
2010-08-10, 03:27:04,VALID,1004.58,VALID,0,VALID,87.7855,VALID,0.100563,VALID,25.3565,VALID,351,VALID,0,
2010-08-10, 03:28:04,VALID,1004.6,VALID,0,VALID,87.8618,VALID,0.100563,VALID,25.3565,VALID,294,VALID,0.351563,
2010-08-10, 03:29:04,VALID,1004.61,VALID,0,VALID,88.2433,VALID,0,VALID,25.3565,VALID,183,VALID,2.47227,
2010-08-10, 03:30:04,VALID,1004.58,VALID,0,VALID,88.5408,VALID,0.100563,VALID,25.2981,VALID,134,VALID,1.96719,
2010-08-10, 03:31:04,VALID,1004.6,VALID,0,VALID,89.0748,VALID,0.100563,VALID,25.2397,VALID,162,VALID,1.64219,
2010-08-10, 03:32:04,VALID,1004.65,VALID,0,VALID,89.8453,VALID,0.100563,VALID,25.1794,VALID,155,VALID,1.5582,
2010-08-10, 03:33:04,VALID,1004.64,VALID,0,VALID,90.7532,VALID,0,VALID,25.1618,VALID,205,VALID,0.802734,
2010-08-10, 03:34:04,VALID,1004.67,VALID,0,VALID,94.0031,VALID,0,VALID,25.1423,VALID,178,VALID,0.584766,
2010-08-10, 03:35:04,VALID,1004.67,VALID,0,VALID,96.7723,VALID,0,VALID,25.1229,VALID,151,VALID,0.836328,
2010-08-10, 03:36:04,VALID,1004.69,VALID,0,VALID,102.082,VALID,0,VALID,25.1053,VALID,163,VALID,1.22539,
2010-08-10, 03:37:04,VALID,1004.72,VALID,0,VALID,104,VALID,0.100563,VALID,25.082,VALID,194,VALID,1.09297,
2010-08-10, 03:38:04,VALID,1004.69,VALID,0,VALID,104,VALID,0,VALID,25.1229,VALID,178,VALID,1.30234,
2010-08-10, 03:39:04,VALID,1004.73,VALID,0,INVALID,109.078,VALID,0,VALID,25.1229,VALID,187,VALID,1.19727,
2010-08-10, 03:40:04,VALID,1004.74,VALID,0,INVALID,109.856,VALID,0.100563,VALID,25.1423,VALID,212,VALID,0.878906,
2010-08-10, 03:41:04,VALID,1004.75,VALID,0,INVALID,110.176,VALID,0,VALID,25.1599,VALID,217,VALID,0.655078,
2010-08-10, 03:42:04,VALID,1004.76,VALID,0,INVALID,110.634,VALID,0.100563,VALID,25.2007,VALID,199,VALID,0.432031,